Location: ???????
(55.4362°N, 38.1183°E)
Time: 20:05:48
(UTC+00:00)

M-CUBED/EXP-1 PRIME - Pass Details

Date: 11 December 2021
Orbit: 426 x 650 km, 101.7° (Epoch: 26 January)

Event Time Altitude Azimuth Distance (km) Brightness Sun altitude
Rises 16:33:04 0° 208° (SSW) 2,871 ? -28.9°
Reaches altitude 10° 16:36:04 10° 232° (SW) 2,007 ? -29.4°
Maximum altitude 16:38:38 15° 268° (W) 1,711 ? -29.7°
Drops below altitude 10° 16:41:16 10° 304° (NW) 2,058 ? -30.1°
Sets 16:44:24 0° 327° (NNW) 2,987 ? -30.6°
